| time (UTC) | temp C | wind direction | speed KPH | gust KPH | rain 1hr cm | rain 24hr cm | rain mn cm | humidity % | barometer mb |
| 20260506201554 | 23 | 39 | 3.2 | 16.1 | 0.00 | 0.00 | 0.00 | 25 | 1012.3 |
| 20260506201055 | 23 | 5 | 4.8 | 16.1 | 0.00 | 0.00 | 0.00 | 25 | 1012.3 |
| 20260506200554 | 23 | 135 | 6.4 | 17.7 | 0.00 | 0.00 | 0.00 | 26 | 1012.4 |
| 20260506200051 | 23 | 103 | 4.8 | 17.7 | 0.00 | 0.00 | 0.00 | 26 | 1012.5 |
| 20260506195551 | 23 | 74 | 3.2 | 11.3 | 0.00 | 0.00 | 0.00 | 26 | 1012.6 |
| 20260506195053 | 23 | 85 | 6.4 | 19.3 | 0.00 | 0.00 | 0.00 | 26 | 1012.7 |
| 20260506194556 | 23 | 153 | 1.6 | 19.3 | 0.00 | 0.00 | 0.00 | 26 | 1012.6 |
| 20260506194054 | 23 | 113 | 4.8 | 17.7 | 0.00 | 0.00 | 0.00 | 26 | 1012.6 |
| 20260506193550 | 23 | 146 | 4.8 | 14.5 | 0.00 | 0.00 | 0.00 | 27 | 1012.6 |
| 20260506193057 | 23 | 155 | 1.6 | 9.7 | 0.00 | 0.00 | 0.00 | 26 | 1012.7 |
| 20260506192549 | 23 | 92 | 0.0 | 17.7 | 0.00 | 0.00 | 0.00 | 27 | 1012.8 |
| 20260506192051 | 23 | 64 | 8.0 | 19.3 | 0.00 | 0.00 | 0.00 | 27 | 1012.9 |
| 20260506191549 | 23 | 38 | 9.7 | 19.3 | 0.00 | 0.00 | 0.00 | 26 | 1012.9 |
| 20260506191048 | 23 | 67 | 4.8 | 16.1 | 0.00 | 0.00 | 0.00 | 27 | 1012.9 |
| 20260506190547 | 22 | 81 | 6.4 | 16.1 | 0.00 | 0.00 | 0.00 | 27 | 1012.9 |
| 20260506190050 | 22 | 58 | 6.4 | 19.3 | 0.00 | 0.00 | 0.00 | 27 | 1013.0 |
| 20260506185546 | 22 | 65 | 3.2 | 19.3 | 0.00 | 0.00 | 0.00 | 27 | 1013.0 |
| 20260506185046 | 22 | 87 | 1.6 | 20.9 | 0.00 | 0.00 | 0.00 | 27 | 1013.0 |
| 20260506184546 | 22 | 94 | 8.0 | 20.9 | 0.00 | 0.00 | 0.00 | 27 | 1013.1 |
| 20260506184047 | 22 | 76 | 4.8 | 12.9 | 0.00 | 0.00 | 0.00 | 27 | 1013.2 |
| 20260506183544 | 22 | 85 | 3.2 | 17.7 | 0.00 | 0.00 | 0.00 | 28 | 1013.1 |
| 20260506183045 | 22 | 142 | 9.7 | 17.7 | 0.00 | 0.00 | 0.00 | 28 | 1013.1 |
| 20260506182544 | 22 | 148 | 6.4 | 17.7 | 0.00 | 0.00 | 0.00 | 28 | 1013.2 |
| 20260506182043 | 22 | 87 | 6.4 | 17.7 | 0.00 | 0.00 | 0.00 | 28 | 1013.2 |
| 20260506181543 | 22 | 141 | 6.4 | 17.7 | 0.00 | 0.00 | 0.00 | 28 | 1013.2 |
| 20260506181042 | 22 | 150 | 6.4 | 17.7 | 0.00 | 0.00 | 0.00 | 28 | 1013.2 |
| 20260506180542 | 22 | 142 | 8.0 | 16.1 | 0.00 | 0.00 | 0.00 | 29 | 1013.2 |
| 20260506180050 | 22 | 165 | 4.8 | 14.5 | 0.00 | 0.00 | 0.00 | 28 | 1013.3 |
| 20260506175539 | 21 | 78 | 4.8 | 17.7 | 0.00 | 0.00 | 0.00 | 29 | 1013.3 |
| 20260506175038 | 21 | 44 | 6.4 | 19.3 | 0.00 | 0.00 | 0.00 | 30 | 1013.3 |
| 20260506174542 | 21 | 136 | 6.4 | 20.9 | 0.00 | 0.00 | 0.00 | 29 | 1013.3 |
| 20260506174037 | 21 | 96 | 6.4 | 20.9 | 0.00 | 0.00 | 0.00 | 29 | 1013.2 |
| 20260506173537 | 21 | 97 | 3.2 | 19.3 | 0.00 | 0.00 | 0.00 | 29 | 1013.3 |
| 20260506173039 | 21 | 92 | 6.4 | 16.1 | 0.00 | 0.00 | 0.00 | 29 | 1013.2 |
| 20260506172536 | 21 | 64 | 3.2 | 14.5 | 0.00 | 0.00 | 0.00 | 30 | 1013.2 |
| 20260506172036 | 21 | 95 | 8.0 | 16.1 | 0.00 | 0.00 | 0.00 | 30 | 1013.2 |
| 20260506171537 | 21 | 103 | 1.6 | 16.1 | 0.00 | 0.00 | 0.00 | 29 | 1013.2 |
| 20260506171036 | 21 | 121 | 4.8 | 17.7 | 0.00 | 0.00 | 0.00 | 29 | 1013.1 |
| 20260506170534 | 21 | 142 | 8.0 | 17.7 | 0.00 | 0.00 | 0.00 | 30 | 1013.0 |
| 20260506170033 | 20 | 129 | 6.4 | 16.1 | 0.00 | 0.00 | 0.00 | 30 | 1013.0 |
| 20260506165533 | 21 | 98 | 4.8 | 14.5 | 0.00 | 0.00 | 0.00 | 29 | 1013.0 |
| 20260506165032 | 20 | 111 | 6.4 | 14.5 | 0.00 | 0.00 | 0.00 | 30 | 1013.0 |
| 20260506164532 | 20 | 130 | 4.8 | 12.9 | 0.00 | 0.00 | 0.00 | 30 | 1012.9 |
| 20260506164032 | 20 | 94 | 4.8 | 14.5 | 0.00 | 0.00 | 0.00 | 30 | 1013.0 |
| 20260506163530 | 20 | 59 | 4.8 | 14.5 | 0.00 | 0.00 | 0.00 | 30 | 1012.9 |
| 20260506163053 | 20 | 134 | 6.4 | 14.5 | 0.00 | 0.00 | 0.00 | 30 | 1013.0 |
| 20260506162529 | 20 | 86 | 6.4 | 14.5 | 0.00 | 0.00 | 0.00 | 30 | 1012.9 |
| 20260506162031 | 20 | 89 | 8.0 | 16.1 | 0.00 | 0.00 | 0.00 | 30 | 1012.9 |
| 20260506161527 | 20 | 72 | 8.0 | 14.5 | 0.00 | 0.00 | 0.00 | 30 | 1012.9 |
| 20260506161025 | 20 | 78 | 6.4 | 14.5 | 0.00 | 0.00 | 0.00 | 30 | 1012.8 |
| 20260506160525 | 19 | 103 | 6.4 | 14.5 | 0.00 | 0.00 | 0.00 | 31 | 1012.9 |
| 20260506160025 | 19 | 90 | 8.0 | 16.1 | 0.00 | 0.00 | 0.00 | 31 | 1012.9 |
| 20260506155523 | 19 | 109 | 4.8 | 16.1 | 0.00 | 0.00 | 0.00 | 30 | 1013.0 |
| 20260506155023 | 19 | 104 | 4.8 | 12.9 | 0.00 | 0.00 | 0.00 | 30 | 1012.9 |
| 20260506154522 | 19 | 53 | 4.8 | 14.5 | 0.00 | 0.00 | 0.00 | 30 | 1012.9 |
| 20260506154026 | 19 | 86 | 3.2 | 14.5 | 0.00 | 0.00 | 0.00 | 30 | 1012.9 |
| 20260506153522 | 19 | 82 | 6.4 | 14.5 | 0.00 | 0.00 | 0.00 | 30 | 1012.8 |
| 20260506153020 | 19 | 92 | 3.2 | 11.3 | 0.00 | 0.00 | 0.00 | 30 | 1012.7 |
| 20260506152519 | 19 | 146 | 3.2 | 9.7 | 0.00 | 0.00 | 0.00 | 31 | 1012.8 |
| 20260506152023 | 18 | 154 | 0.0 | 9.7 | 0.00 | 0.00 | 0.00 | 32 | 1012.8 |
| 20260506151518 | 18 | 238 | 1.6 | 6.4 | 0.00 | 0.00 | 0.00 | 31 | 1012.7 |
| 20260506151017 | 18 | 240 | 1.6 | 6.4 | 0.00 | 0.00 | 0.00 | 31 | 1012.7 |
| 20260506150517 | 18 | 246 | 1.6 | 6.4 | 0.00 | 0.00 | 0.00 | 31 | 1012.7 |
| 20260506150016 | 18 | 247 | 0.0 | 4.8 | 0.00 | 0.00 | 0.00 | 31 | 1012.8 |
| 20260506145520 | 18 | 247 | 0.0 | 4.8 | 0.00 | 0.00 | 0.00 | 31 | 1012.7 |
| 20260506145015 | 18 | 248 | 0.0 | 3.2 | 0.00 | 0.00 | 0.00 | 32 | 1012.7 |
| 20260506144515 | 18 | 247 | 0.0 | 4.8 | 0.00 | 0.00 | 0.00 | 32 | 1012.7 |
| 20260506144015 | 17 | 247 | 1.6 | 4.8 | 0.00 | 0.00 | 0.00 | 32 | 1012.6 |
| 20260506143517 | 17 | 248 | 1.6 | 4.8 | 0.00 | 0.00 | 0.00 | 32 | 1012.5 |
| 20260506143014 | 18 | 248 | 0.0 | 3.2 | 0.00 | 0.00 | 0.00 | 32 | 1012.5 |
| 20260506142512 | 18 | 248 | 0.0 | 3.2 | 0.00 | 0.00 | 0.00 | 31 | 1012.4 |
| 20260506142013 | 18 | 248 | 0.0 | 0.0 | 0.00 | 0.00 | 0.00 | 31 | 1012.4 |
| 20260506141513 | 18 | 248 | 0.0 | 0.0 | 0.00 | 0.00 | 0.00 | 31 | 1012.4 |
| 20260506141012 | 18 | 248 | 0.0 | 1.6 | 0.00 | 0.00 | 0.00 | 31 | 1012.3 |
| 20260506140511 | 18 | 248 | 0.0 | 1.6 | 0.00 | 0.00 | 0.00 | 30 | 1012.3 |
| 20260506140010 | 18 | 248 | 0.0 | 0.0 | 0.00 | 0.00 | 0.00 | 30 | 1012.2 |
| 20260506135510 | 18 | 248 | 0.0 | 0.0 | 0.00 | 0.00 | 0.00 | 30 | 1012.3 |
| 20260506135011 | 18 | 248 | 0.0 | 0.0 | 0.00 | 0.00 | 0.00 | 30 | 1012.2 |
| 20260506134507 | 17 | 248 | 0.0 | 0.0 | 0.00 | 0.00 | 0.00 | 31 | 1012.1 |
| 20260506134009 | 17 | 248 | 0.0 | 0.0 | 0.00 | 0.00 | 0.00 | 32 | 1012.0 |
| 20260506133503 | 16 | 248 | 0.0 | 0.0 | 0.00 | 0.00 | 0.00 | 33 | 1012.0 |
| 20260506133003 | 16 | 248 | 0.0 | 1.6 | 0.00 | 0.00 | 0.00 | 33 | 1011.8 |
| 20260506132502 | 16 | 248 | 0.0 | 1.6 | 0.00 | 0.00 | 0.00 | 34 | 1011.8 |
| 20260506132002 | 16 | 248 | 0.0 | 3.2 | 0.00 | 0.00 | 0.00 | 34 | 1011.7 |
| 20260506131502 | 15 | 248 | 0.0 | 4.8 | 0.00 | 0.00 | 0.00 | 34 | 1011.7 |
| 20260506131002 | 15 | 248 | 0.0 | 4.8 | 0.00 | 0.00 | 0.00 | 34 | 1011.6 |
| 20260506130503 | 15 | 248 | 0.0 | 4.8 | 0.00 | 0.00 | 0.00 | 34 | 1011.5 |
| 20260506125559 | 15 | 248 | 0.0 | 3.2 | 0.00 | 0.00 | 0.00 | 35 | 1011.4 |
| 20260506125101 | 15 | 248 | 0.0 | 3.2 | 0.00 | 0.00 | 0.00 | 35 | 1011.3 |
| 20260506124558 | 15 | 248 | 0.0 | 3.2 | 0.00 | 0.00 | 0.00 | 35 | 1011.2 |
| 20260506124057 | 15 | 248 | 0.0 | 0.0 | 0.00 | 0.00 | 0.00 | 35 | 1011.2 |
| 20260506123556 | 15 | 248 | 0.0 | 3.2 | 0.00 | 0.00 | 0.00 | 35 | 1011.1 |
| 20260506123056 | 15 | 248 | 0.0 | 3.2 | 0.00 | 0.00 | 0.00 | 35 | 1011.1 |
| 20260506122556 | 15 | 248 | 0.0 | 1.6 | 0.00 | 0.00 | 0.00 | 35 | 1011.0 |
| 20260506122055 | 15 | 248 | 0.0 | 4.8 | 0.00 | 0.00 | 0.00 | 35 | 1011.0 |
| 20260506121554 | 15 | 248 | 0.0 | 4.8 | 0.00 | 0.00 | 0.00 | 35 | 1011.0 |
| 20260506121054 | 15 | 248 | 0.0 | 4.8 | 0.00 | 0.00 | 0.00 | 35 | 1010.9 |
| 20260506120554 | 15 | 248 | 0.0 | 4.8 | 0.00 | 0.00 | 0.00 | 35 | 1011.0 |
| 20260506120059 | 15 | 248 | 0.0 | 6.4 | 0.00 | 0.00 | 0.00 | 35 | 1010.9 |
| 20260506115554 | 15 | 247 | 0.0 | 6.4 | 0.00 | 0.00 | 0.00 | 35 | 1010.9 |
| 20260506115052 | 15 | 247 | 0.0 | 4.8 | 0.00 | 0.00 | 0.00 | 35 | 1010.9 |
| 20260506114559 | 15 | 247 | 0.0 | 4.8 | 0.00 | 0.00 | 0.00 | 35 | 1010.9 |
| 20260506114056 | 15 | 247 | 0.0 | 4.8 | 0.00 | 0.00 | 0.00 | 35 | 1010.9 |
| 20260506113551 | 15 | 247 | 0.0 | 4.8 | 0.00 | 0.00 | 0.00 | 35 | 1010.8 |
| 20260506113053 | 15 | 247 | 0.0 | 3.2 | 0.00 | 0.00 | 0.00 | 35 | 1010.8 |
| 20260506112552 | 15 | 247 | 0.0 | 1.6 | 0.00 | 0.00 | 0.00 | 35 | 1010.8 |
| 20260506112051 | 15 | 247 | 0.0 | 4.8 | 0.00 | 0.00 | 0.00 | 35 | 1010.7 |
| 20260506111549 | 15 | 247 | 0.0 | 4.8 | 0.00 | 0.00 | 0.00 | 34 | 1010.7 |
| 20260506111048 | 15 | 247 | 0.0 | 3.2 | 0.00 | 0.00 | 0.00 | 34 | 1010.7 |
| 20260506110548 | 15 | 247 | 0.0 | 1.6 | 0.00 | 0.00 | 0.00 | 33 | 1010.7 |
| 20260506110055 | 15 | 247 | 0.0 | 3.2 | 0.00 | 0.00 | 0.00 | 33 | 1010.7 |
| 20260506105546 | 15 | 247 | 1.6 | 3.2 | 0.00 | 0.00 | 0.00 | 33 | 1010.6 |
| 20260506105045 | 15 | 247 | 1.6 | 3.2 | 0.00 | 0.00 | 0.00 | 34 | 1010.7 |
| 20260506104545 | 15 | 247 | 0.0 | 3.2 | 0.00 | 0.00 | 0.00 | 33 | 1010.7 |
| 20260506104045 | 15 | 247 | 0.0 | 3.2 | 0.00 | 0.00 | 0.00 | 34 | 1010.6 |
| 20260506103547 | 15 | 247 | 0.0 | 1.6 | 0.00 | 0.00 | 0.00 | 34 | 1010.6 |
| 20260506103047 | 15 | 247 | 0.0 | 0.0 | 0.00 | 0.00 | 0.00 | 34 | 1010.5 |
| 20260506102543 | 15 | 247 | 0.0 | 0.0 | 0.00 | 0.00 | 0.00 | 34 | 1010.4 |
| 20260506102043 | 15 | 247 | 0.0 | 0.0 | 0.00 | 0.00 | 0.00 | 34 | 1010.3 |
| 20260506101543 | 15 | 247 | 0.0 | 0.0 | 0.00 | 0.00 | 0.00 | 34 | 1010.3 |
| 20260506101045 | 15 | 247 | 0.0 | 3.2 | 0.00 | 0.00 | 0.00 | 34 | 1010.2 |
| 20260506100541 | 15 | 247 | 0.0 | 3.2 | 0.00 | 0.00 | 0.00 | 34 | 1010.2 |
| 20260506100045 | 15 | 247 | 0.0 | 1.6 | 0.00 | 0.00 | 0.00 | 35 | 1010.2 |
| 20260506095543 | 15 | 247 | 0.0 | 3.2 | 0.00 | 0.00 | 0.00 | 35 | 1010.0 |
| 20260506095039 | 15 | 247 | 0.0 | 3.2 | 0.00 | 0.00 | 0.00 | 35 | 1010.0 |
| 20260506094548 | 15 | 247 | 0.0 | 3.2 | 0.00 | 0.00 | 0.00 | 35 | 1009.9 |
| 20260506094038 | 15 | 247 | 0.0 | 3.2 | 0.00 | 0.00 | 0.00 | 34 | 1009.9 |
| 20260506093537 | 15 | 247 | 0.0 | 3.2 | 0.00 | 0.00 | 0.00 | 35 | 1009.9 |
| 20260506093037 | 15 | 247 | 0.0 | 3.2 | 0.00 | 0.00 | 0.00 | 34 | 1009.9 |
| 20260506092536 | 15 | 247 | 0.0 | 3.2 | 0.00 | 0.00 | 0.00 | 34 | 1009.9 |
| 20260506092035 | 15 | 247 | 0.0 | 3.2 | 0.00 | 0.00 | 0.00 | 33 | 1009.9 |
| 20260506091534 | 16 | 247 | 0.0 | 1.6 | 0.00 | 0.00 | 0.00 | 32 | 1009.8 |
| 20260506091035 | 16 | 247 | 0.0 | 1.6 | 0.00 | 0.00 | 0.00 | 32 | 1009.8 |
| 20260506090533 | 16 | 247 | 0.0 | 1.6 | 0.00 | 0.00 | 0.00 | 32 | 1009.8 |
| 20260506090033 | 16 | 247 | 0.0 | 3.2 | 0.00 | 0.00 | 0.00 | 32 | 1009.7 |
| 20260506085531 | 16 | 247 | 0.0 | 3.2 | 0.00 | 0.00 | 0.00 | 32 | 1009.7 |
| 20260506085032 | 16 | 247 | 0.0 | 3.2 | 0.00 | 0.00 | 0.00 | 32 | 1009.7 |
| 20260506084531 | 16 | 247 | 0.0 | 4.8 | 0.00 | 0.00 | 0.00 | 32 | 1009.8 |
| 20260506084031 | 16 | 247 | 0.0 | 6.4 | 0.00 | 0.00 | 0.00 | 32 | 1009.8 |
| 20260506083531 | 16 | 247 | 1.6 | 6.4 | 0.00 | 0.00 | 0.00 | 32 | 1009.7 |
| 20260506083030 | 16 | 247 | 0.0 | 3.2 | 0.00 | 0.00 | 0.00 | 32 | 1009.7 |
| 20260506082531 | 16 | 247 | 0.0 | 3.2 | 0.00 | 0.00 | 0.00 | 32 | 1009.7 |
| 20260506082031 | 16 | 247 | 0.0 | 1.6 | 0.00 | 0.00 | 0.00 | 32 | 1009.7 |
| 20260506081530 | 16 | 247 | 0.0 | 1.6 | 0.00 | 0.00 | 0.00 | 31 | 1009.8 |
| 20260506081030 | 16 | 247 | 0.0 | 1.6 | 0.00 | 0.00 | 0.00 | 31 | 1009.8 |
| 20260506080530 | 16 | 247 | 0.0 | 1.6 | 0.00 | 0.00 | 0.00 | 31 | 1009.7 |
| 20260506073526 | 16 | 247 | 0.0 | 1.6 | 0.00 | 0.00 | 0.00 | 32 | 1009.8 |
| 20260506073026 | 16 | 247 | 0.0 | 1.6 | 0.00 | 0.00 | 0.00 | 32 | 1009.8 |
| 20260506072526 | 16 | 247 | 0.0 | 3.2 | 0.00 | 0.00 | 0.00 | 32 | 1009.8 |
| 20260506072024 | 16 | 247 | 0.0 | 3.2 | 0.00 | 0.00 | 0.00 | 32 | 1009.7 |
| 20260506071530 | 16 | 247 | 0.0 | 1.6 | 0.00 | 0.00 | 0.00 | 32 | 1009.7 |
| 20260506071025 | 16 | 247 | 0.0 | 3.2 | 0.00 | 0.00 | 0.00 | 32 | 1009.7 |
| 20260506070524 | 16 | 247 | 0.0 | 4.8 | 0.00 | 0.00 | 0.00 | 32 | 1009.7 |
| 20260506062020 | 17 | 247 | 0.0 | 1.6 | 0.00 | 0.00 | 0.00 | 30 | 1009.5 |
| 20260506061526 | 17 | 247 | 0.0 | 4.8 | 0.00 | 0.00 | 0.00 | 29 | 1009.3 |
| 20260506061019 | 17 | 247 | 0.0 | 4.8 | 0.00 | 0.00 | 0.00 | 29 | 1009.3 |
| 20260506060519 | 17 | 247 | 0.0 | 8.0 | 0.00 | 0.00 | 0.00 | 30 | 1009.1 |
| 20260506051013 | 17 | 246 | 0.0 | 3.2 | 0.00 | 0.00 | 0.00 | 32 | 1008.7 |
| 20260506050516 | 17 | 246 | 0.0 | 4.8 | 0.00 | 0.00 | 0.00 | 32 | 1008.6 |
| 20260506045010 | 17 | 246 | 0.0 | 3.2 | 0.00 | 0.00 | 0.00 | 32 | 1008.3 |
| 20260506044510 | 17 | 246 | 0.0 | 4.8 | 0.00 | 0.00 | 0.00 | 32 | 1008.3 |
| 20260506044011 | 17 | 246 | 0.0 | 6.4 | 0.00 | 0.00 | 0.00 | 32 | 1008.2 |
| 20260506043508 | 17 | 246 | 1.6 | 8.0 | 0.00 | 0.00 | 0.00 | 32 | 1008.2 |
| 20260506043008 | 17 | 245 | 0.0 | 8.0 | 0.00 | 0.00 | 0.00 | 32 | 1008.2 |
| 20260506042510 | 17 | 242 | 1.6 | 6.4 | 0.00 | 0.00 | 0.00 | 32 | 1008.0 |
| 20260506042007 | 17 | 241 | 1.6 | 6.4 | 0.00 | 0.00 | 0.00 | 32 | 1008.0 |
| 20260506041506 | 17 | 241 | 0.0 | 6.4 | 0.00 | 0.00 | 0.00 | 32 | 1008.0 |
| 20260506041009 | 17 | 241 | 0.0 | 8.0 | 0.00 | 0.00 | 0.00 | 32 | 1007.9 |
| 20260506040505 | 17 | 240 | 0.0 | 6.4 | 0.00 | 0.00 | 0.00 | 32 | 1007.9 |
| 20260506040010 | 17 | 240 | 1.6 | 6.4 | 0.00 | 0.00 | 0.00 | 32 | 1007.8 |
| 20260506035504 | 17 | 240 | 1.6 | 6.4 | 0.00 | 0.00 | 0.00 | 32 | 1007.7 |
| 20260506035004 | 17 | 239 | 1.6 | 12.9 | 0.00 | 0.00 | 0.00 | 32 | 1007.6 |
| 20260506034504 | 17 | 238 | 1.6 | 12.9 | 0.00 | 0.00 | 0.00 | 32 | 1007.6 |
| 20260506034004 | 18 | 242 | 3.2 | 8.0 | 0.00 | 0.00 | 0.00 | 32 | 1007.5 |
| 20260506033503 | 18 | 240 | 4.8 | 11.3 | 0.00 | 0.00 | 0.00 | 32 | 1007.4 |
| 20260506033004 | 18 | 248 | 1.6 | 8.0 | 0.00 | 0.00 | 0.00 | 32 | 1007.3 |
| 20260506032503 | 18 | 245 | 3.2 | 12.9 | 0.00 | 0.00 | 0.00 | 32 | 1007.3 |
| 20260506032003 | 18 | 245 | 4.8 | 12.9 | 0.00 | 0.00 | 0.00 | 32 | 1007.2 |
| 20260506031508 | 18 | 249 | 3.2 | 12.9 | 0.00 | 0.00 | 0.00 | 32 | 1007.1 |
| 20260506031003 | 18 | 259 | 3.2 | 12.9 | 0.00 | 0.00 | 0.00 | 31 | 1007.0 |
| 20260506030502 | 18 | 256 | 3.2 | 11.3 | 0.00 | 0.00 | 0.00 | 31 | 1006.9 |
| 20260506030003 | 18 | 256 | 4.8 | 11.3 | 0.00 | 0.00 | 0.00 | 31 | 1006.8 |
| 20260506025504 | 18 | 258 | 1.6 | 9.7 | 0.00 | 0.00 | 0.00 | 31 | 1006.7 |
| 20260506025002 | 18 | 258 | 1.6 | 9.7 | 0.00 | 0.00 | 0.00 | 31 | 1006.7 |
| 20260506024505 | 18 | 259 | 3.2 | 11.3 | 0.00 | 0.00 | 0.00 | 31 | 1006.7 |
| 20260506024001 | 18 | 260 | 4.8 | 14.5 | 0.00 | 0.00 | 0.00 | 31 | 1006.6 |
| 20260506023502 | 18 | 263 | 4.8 | 14.5 | 0.00 | 0.00 | 0.00 | 31 | 1006.6 |
| 20260506023002 | 18 | 263 | 4.8 | 14.5 | 0.00 | 0.00 | 0.00 | 31 | 1006.5 |
| 20260506022501 | 18 | 251 | 4.8 | 11.3 | 0.00 | 0.00 | 0.00 | 30 | 1006.5 |
| 20260506022001 | 19 | 260 | 1.6 | 12.9 | 0.00 | 0.00 | 0.00 | 30 | 1006.4 |
| 20260506021601 | 19 | 256 | 3.2 | 12.9 | 0.00 | 0.00 | 0.00 | 30 | 1006.4 |
| 20260506021501 | 19 | 257 | 3.2 | 12.9 | 0.00 | 0.00 | 0.00 | 30 | 1006.5 |
| 20260506021100 | 19 | 251 | 3.2 | 11.3 | 0.00 | 0.00 | 0.00 | 30 | 1006.4 |
| 20260506020600 | 19 | 255 | 1.6 | 11.3 | 0.00 | 0.00 | 0.00 | 29 | 1006.3 |
| 20260506020001 | 19 | 245 | 3.2 | 11.3 | 0.00 | 0.00 | 0.00 | 29 | 1006.2 |
| 20260506015600 | 19 | 231 | 1.6 | 9.7 | 0.00 | 0.00 | 0.00 | 29 | 1006.2 |
| 20260506015203 | 19 | 225 | 3.2 | 11.3 | 0.00 | 0.00 | 0.00 | 29 | 1006.2 |
| 20260506014600 | 19 | 219 | 4.8 | 11.3 | 0.00 | 0.00 | 0.00 | 29 | 1006.2 |
| 20260506014101 | 20 | 190 | 3.2 | 9.7 | 0.00 | 0.00 | 0.00 | 29 | 1006.1 |
| 20260506013559 | 20 | 228 | 1.6 | 8.0 | 0.00 | 0.00 | 0.00 | 28 | 1006.1 |
| 20260506013059 | 20 | 245 | 1.6 | 8.0 | 0.00 | 0.00 | 0.00 | 27 | 1006.1 |
| 20260506012559 | 21 | 248 | 3.2 | 8.0 | 0.00 | 0.00 | 0.00 | 27 | 1006.2 |
| 20260506012058 | 20 | 218 | 1.6 | 6.4 | 0.00 | 0.00 | 0.00 | 26 | 1006.2 |
| 20260506011607 | 20 | 212 | 0.0 | 9.7 | 0.00 | 0.00 | 0.00 | 26 | 1006.1 |
| 20260506011058 | 21 | 203 | 3.2 | 9.7 | 0.00 | 0.00 | 0.00 | 25 | 1006.0 |
| 20260506010601 | 20 | 215 | 0.0 | 8.0 | 0.00 | 0.00 | 0.00 | 25 | 1006.1 |
| 20260506010100 | 20 | 215 | 1.6 | 8.0 | 0.00 | 0.00 | 0.00 | 25 | 1006.1 |
| 20260506005556 | 20 | 206 | 3.2 | 8.0 | 0.00 | 0.00 | 0.00 | 26 | 1006.0 |
| 20260506005056 | 20 | 156 | 3.2 | 12.9 | 0.00 | 0.00 | 0.00 | 25 | 1006.0 |
| 20260506004559 | 20 | 149 | 3.2 | 12.9 | 0.00 | 0.00 | 0.00 | 24 | 1006.0 |
| 20260506004056 | 20 | 182 | 4.8 | 12.9 | 0.00 | 0.00 | 0.00 | 25 | 1006.0 |
| 20260506003556 | 20 | 175 | 3.2 | 11.3 | 0.00 | 0.00 | 0.00 | 24 | 1006.0 |
| 20260506003056 | 21 | 213 | 0.0 | 8.0 | 0.00 | 0.00 | 0.00 | 24 | 1005.8 |
| 20260506002558 | 20 | 180 | 0.0 | 9.7 | 0.00 | 0.00 | 0.00 | 24 | 1005.8 |
| 20260506002055 | 20 | 182 | 3.2 | 9.7 | 0.00 | 0.00 | 0.00 | 24 | 1005.9 |
| 20260506001555 | 20 | 153 | 1.6 | 9.7 | 0.00 | 0.00 | 0.00 | 24 | 1005.9 |
| 20260506001056 | 20 | 148 | 3.2 | 11.3 | 0.00 | 0.00 | 0.00 | 23 | 1005.9 |
| 20260506000556 | 20 | 138 | 1.6 | 14.5 | 0.00 | 0.00 | 0.00 | 23 | 1005.9 |
| 20260506000058 | 20 | 101 | 4.8 | 14.5 | 0.00 | 0.00 | 0.00 | 23 | 1005.8 |
| 20260505235552 | 21 | 179 | 0.0 | 8.0 | 0.00 | 0.00 | 0.00 | 23 | 1005.8 |
| 20260505235052 | 20 | 159 | 1.6 | 11.3 | 0.00 | 0.00 | 0.00 | 24 | 1005.8 |
| 20260505234559 | 20 | 164 | 3.2 | 11.3 | 0.00 | 0.00 | 0.00 | 23 | 1005.8 |
| 20260505234052 | 20 | 95 | 3.2 | 11.3 | 0.00 | 0.00 | 0.00 | 24 | 1005.8 |
| 20260505233550 | 20 | 78 | 1.6 | 11.3 | 0.00 | 0.00 | 0.00 | 24 | 1005.8 |
| 20260505233103 | 20 | 138 | 0.0 | 12.9 | 0.00 | 0.00 | 0.00 | 24 | 1005.8 |
| 20260505232550 | 20 | 158 | 4.8 | 12.9 | 0.00 | 0.00 | 0.00 | 24 | 1005.9 |
| 20260505232051 | 20 | 88 | 4.8 | 11.3 | 0.00 | 0.00 | 0.00 | 24 | 1005.9 |
| 20260505231553 | 20 | 215 | 0.0 | 4.8 | 0.00 | 0.00 | 0.00 | 24 | 1005.9 |
| 20260505231047 | 20 | 227 | 0.0 | 14.5 | 0.00 | 0.00 | 0.00 | 24 | 1005.9 |
| 20260505230548 | 20 | 191 | 4.8 | 12.9 | 0.00 | 0.00 | 0.00 | 25 | 1006.0 |
| 20260505230046 | 19 | 31 | 3.2 | 16.1 | 0.00 | 0.00 | 0.00 | 24 | 1006.0 |
| 20260505225546 | 19 | 122 | 6.4 | 16.1 | 0.00 | 0.00 | 0.00 | 24 | 1006.1 |
| 20260505225045 | 20 | 106 | 3.2 | 14.5 | 0.00 | 0.00 | 0.00 | 24 | 1006.1 |
| 20260505224545 | 19 | 153 | 0.0 | 11.3 | 0.00 | 0.00 | 0.00 | 25 | 1006.3 |
| 20260505224045 | 20 | 155 | 3.2 | 11.3 | 0.00 | 0.00 | 0.00 | 24 | 1006.3 |
| 20260505223544 | 20 | 134 | 3.2 | 19.3 | 0.00 | 0.00 | 0.00 | 25 | 1006.3 |
| 20260505223051 | 20 | 104 | 8.0 | 19.3 | 0.00 | 0.00 | 0.00 | 25 | 1006.3 |
| 20260505222543 | 20 | 79 | 1.6 | 11.3 | 0.00 | 0.00 | 0.00 | 25 | 1006.3 |
| 20260505222043 | 20 | 59 | 6.4 | 16.1 | 0.00 | 0.00 | 0.00 | 25 | 1006.4 |
| 20260505221546 | 20 | 48 | 4.8 | 16.1 | 0.00 | 0.00 | 0.00 | 25 | 1006.4 |
| 20260505221143 | 20 | 124 | 6.4 | 14.5 | 0.00 | 0.00 | 0.00 | 24 | 1006.5 |
| 20260505220546 | 20 | 138 | 3.2 | 14.5 | 0.00 | 0.00 | 0.00 | 25 | 1006.5 |
| 20260505220042 | 20 | 111 | 4.8 | 14.5 | 0.00 | 0.00 | 0.00 | 25 | 1006.6 |
| 20260505215538 | 20 | 57 | 1.6 | 20.9 | 0.00 | 0.00 | 0.00 | 25 | 1006.6 |
| 20260505215037 | 19 | 71 | 9.7 | 20.9 | 0.00 | 0.00 | 0.00 | 26 | 1006.6 |
| 20260505214547 | 18 | 123 | 0.0 | 12.9 | 0.00 | 0.00 | 0.00 | 27 | 1006.6 |
| 20260505214036 | 19 | 91 | 4.8 | 12.9 | 0.00 | 0.00 | 0.00 | 26 | 1006.7 |
| 20260505213536 | 19 | 86 | 1.6 | 11.3 | 0.00 | 0.00 | 0.00 | 27 | 1006.7 |
| 20260505213036 | 19 | 167 | 0.0 | 14.5 | 0.00 | 0.00 | 0.00 | 27 | 1006.8 |
| 20260505212535 | 19 | 182 | 0.0 | 14.5 | 0.00 | 0.00 | 0.00 | 27 | 1006.9 |
| 20260505212034 | 19 | 80 | 1.6 | 12.9 | 0.00 | 0.00 | 0.00 | 27 | 1006.9 |
| 20260505211534 | 19 | 117 | 1.6 | 12.9 | 0.00 | 0.00 | 0.00 | 27 | 1006.9 |
| 20260505211036 | 19 | 83 | 4.8 | 12.9 | 0.00 | 0.00 | 0.00 | 27 | 1007.1 |
| 20260505210533 | 19 | 89 | 1.6 | 11.3 | 0.00 | 0.00 | 0.00 | 27 | 1007.1 |
| 20260505210033 | 19 | 67 | 3.2 | 19.3 | 0.00 | 0.00 | 0.00 | 28 | 1007.1 |
| 20260505205533 | 18 | 137 | 6.4 | 22.5 | 0.00 | 0.00 | 0.00 | 28 | 1007.1 |
| 20260505205032 | 19 | 146 | 6.4 | 22.5 | 0.00 | 0.00 | 0.00 | 28 | 1007.0 |
| 20260505204535 | 19 | 86 | 8.0 | 16.1 | 0.00 | 0.00 | 0.00 | 28 | 1007.0 |
| 20260505204030 | 19 | 123 | 6.4 | 14.5 | 0.00 | 0.00 | 0.00 | 28 | 1007.1 |
| 20260505203529 | 19 | 171 | 4.8 | 14.5 | 0.00 | 0.00 | 0.00 | 28 | 1007.1 |
| 20260505203032 | 19 | 142 | 3.2 | 12.9 | 0.00 | 0.00 | 0.00 | 28 | 1007.1 |
| 20260505202529 | 18 | 229 | 3.2 | 14.5 | 0.00 | 0.00 | 0.00 | 29 | 1007.1 |
| 20260505202030 | 19 | 157 | 4.8 | 14.5 | 0.00 | 0.00 | 0.00 | 28 | 1007.1 |